owner,sensor,date,latitude,longitude,air_temperature,qcFlag 
DISL,ioos:station:DISL:KATA:1,2012-11-01T00:00:00Z,30.2583,-88.2131,20.21,1111122 
DISL,ioos:station:DISL:KATA:1,2012-11-01T00:30:00Z,30.2583,-88.2131,20.31,1111122 
DISL,ioos:station:DISL:KATA:1,2012-11-01T01:00:00Z,30.2583,-88.2131,20.34,1111122 
DISL,ioos:station:DISL:KATA:1,2012-11-01T01:30:00Z,30.2583,-88.2131,20.61,1111122 
DISL,ioos:station:DISL:KATA:1,2012-11-01T02:00:00Z,30.2583,-88.2131,20.61,1111122 
DISL,ioos:station:DISL:KATA:1,2012-11-01T02:30:00Z,30.2583,-88.2131,20.68,1111122 
DISL,ioos:station:DISL:KATA:1,2012-11-01T03:00:00Z,30.2583,-88.2131,20.74,1111122 
DISL,ioos:station:DISL:KATA:1,2012-11-01T03:30:00Z,30.2583,-88.2131,20.64,1111122 
DISL,ioos:station:DISL:KATA:1,2012-11-01T04:00:00Z,30.2583,-88.2131,20.4,1111122 
DISL,ioos:station:DISL:KATA:1,2012-11-01T04:30:00Z,30.2583,-88.2131,20.17,1111122 
DISL,ioos:station:DISL:KATA:1,2012-11-01T05:00:00Z,30.2583,-88.2131,19.59,1111122 
DISL,ioos:station:DISL:KATA:1,2012-11-01T05:30:00Z,30.2583,-88.2131,19.5,1111122 
DISL,ioos:station:DISL:KATA:1,2012-11-01T06:00:00Z,30.2583,-88.2131,19.5,1111122 
DISL,ioos:station:DISL:KATA:1,2012-11-01T06:30:00Z,30.2583,-88.2131,19.46,1111122 
DISL,ioos:station:DISL:KATA:1,2012-11-01T07:00:00Z,30.2583,-88.2131,19.26,1111122 
DISL,ioos:station:DISL:KATA:1,2012-11-01T07:30:00Z,30.2583,-88.2131,19.16,1111122 
DISL,ioos:station:DISL:KATA:1,2012-11-01T08:00:00Z,30.2583,-88.2131,18.96,1111122 
DISL,ioos:station:DISL:KATA:1,2012-11-01T08:30:00Z,30.2583,-88.2131,18.79,1111122 
DISL,ioos:station:DISL:KATA:1,2012-11-01T09:00:00Z,30.2583,-88.2131,18.51,1111122 
DISL,ioos:station:DISL:KATA:1,2012-11-01T09:30:00Z,30.2583,-88.2131,18.65,1111122 
DISL,ioos:station:DISL:KATA:1,2012-11-01T10:00:00Z,30.2583,-88.2131,18.48,1111122 
DISL,ioos:station:DISL:KATA:1,2012-11-01T10:30:00Z,30.2583,-88.2131,18.11,1111122 
DISL,ioos:station:DISL:KATA:1,2012-11-01T11:00:00Z,30.2583,-88.2131,17.6,1111122 
DISL,ioos:station:DISL:KATA:1,2012-11-01T11:30:00Z,30.2583,-88.2131,17.06,1111122 
DISL,ioos:station:DISL:KATA:1,2012-11-01T12:00:00Z,30.2583,-88.2131,16.62,1111122 
DISL,ioos:station:DISL:KATA:1,2012-11-01T12:30:00Z,30.2583,-88.2131,16.39,1111122 
DISL,ioos:station:DISL:KATA:1,2012-11-01T13:00:00Z,30.2583,-88.2131,16.49,1111122 
DISL,ioos:station:DISL:KATA:1,2012-11-01T13:30:00Z,30.2583,-88.2131,16.72,1111122 
DISL,ioos:station:DISL:KATA:1,2012-11-01T14:00:00Z,30.2583,-88.2131,17.63,1111122 
DISL,ioos:station:DISL:KATA:1,2012-11-01T14:30:00Z,30.2583,-88.2131,17.67,1111122 
DISL,ioos:station:DISL:KATA:1,2012-11-01T15:00:00Z,30.2583,-88.2131,18.01,1111122 
DISL,ioos:station:DISL:KATA:1,2012-11-01T15:30:00Z,30.2583,-88.2131,18.27,1111122 
DISL,ioos:station:DISL:KATA:1,2012-11-01T16:00:00Z,30.2583,-88.2131,18.81,1111122 
DISL,ioos:station:DISL:KATA:1,2012-11-01T16:30:00Z,30.2583,-88.2131,18.71,1111122 
DISL,ioos:station:DISL:KATA:1,2012-11-01T17:00:00Z,30.2583,-88.2131,17.79,1111122 
DISL,ioos:station:DISL:KATA:1,2012-11-01T17:30:00Z,30.2583,-88.2131,17.48,1111122 
DISL,ioos:station:DISL:KATA:1,2012-11-01T18:00:00Z,30.2583,-88.2131,17.99,1111122 
DISL,ioos:station:DISL:KATA:1,2012-11-01T18:30:00Z,30.2583,-88.2131,18.8,1111122 
DISL,ioos:station:DISL:KATA:1,2012-11-01T19:00:00Z,30.2583,-88.2131,19.41,1111122 
DISL,ioos:station:DISL:KATA:1,2012-11-01T19:30:00Z,30.2583,-88.2131,19.55,1111122 
DISL,ioos:station:DISL:KATA:1,2012-11-01T20:00:00Z,30.2583,-88.2131,19.72,1111122 
DISL,ioos:station:DISL:KATA:1,2012-11-01T20:30:00Z,30.2583,-88.2131,19.95,1111122 
DISL,ioos:station:DISL:KATA:1,2012-11-01T21:00:00Z,30.2583,-88.2131,20.22,1111122 
DISL,ioos:station:DISL:KATA:1,2012-11-01T21:30:00Z,30.2583,-88.2131,20.33,1111122 
DISL,ioos:station:DISL:KATA:1,2012-11-01T22:00:00Z,30.2583,-88.2131,20.6,1111122 
DISL,ioos:station:DISL:KATA:1,2012-11-01T22:30:00Z,30.2583,-88.2131,21.24,1111122 
DISL,ioos:station:DISL:KATA:1,2012-11-01T23:00:00Z,30.2583,-88.2131,20.05,1111122 
DISL,ioos:station:DISL:KATA:1,2012-11-01T23:30:00Z,30.2583,-88.2131,19.72,1111122 
DISL,ioos:station:DISL:KATA:1,2012-11-02T00:00:00Z,30.2583,-88.2131,19.46,1111122 
DISL,ioos:station:DISL:KATA:1,2012-11-02T00:30:00Z,30.2583,-88.2131,19.36,1111122 
DISL,ioos:station:DISL:KATA:1,2012-11-02T01:00:00Z,30.2583,-88.2131,19.26,1111122 
DISL,ioos:station:DISL:KATA:1,2012-11-02T01:30:00Z,30.2583,-88.2131,19.46,1111122 
DISL,ioos:station:DISL:KATA:1,2012-11-02T02:00:00Z,30.2583,-88.2131,19.12,1111122 
DISL,ioos:station:DISL:KATA:1,2012-11-02T02:30:00Z,30.2583,-88.2131,19.4,1111122 
DISL,ioos:station:DISL:KATA:1,2012-11-02T03:00:00Z,30.2583,-88.2131,19.26,1111122 
DISL,ioos:station:DISL:KATA:1,2012-11-02T03:30:00Z,30.2583,-88.2131,18.72,1111122 
DISL,ioos:station:DISL:KATA:1,2012-11-02T04:00:00Z,30.2583,-88.2131,18.68,1111122 
DISL,ioos:station:DISL:KATA:1,2012-11-02T04:30:00Z,30.2583,-88.2131,18.34,1111122 
DISL,ioos:station:DISL:KATA:1,2012-11-02T05:00:00Z,30.2583,-88.2131,18.31,1111122 
DISL,ioos:station:DISL:KATA:1,2012-11-02T05:30:00Z,30.2583,-88.2131,17.88,1111122 
DISL,ioos:station:DISL:KATA:1,2012-11-02T06:00:00Z,30.2583,-88.2131,17.99,1111122 
DISL,ioos:station:DISL:KATA:1,2012-11-02T06:30:00Z,30.2583,-88.2131,18.02,1111122 
DISL,ioos:station:DISL:KATA:1,2012-11-02T07:00:00Z,30.2583,-88.2131,18.33,1111122 
DISL,ioos:station:DISL:KATA:1,2012-11-02T07:30:00Z,30.2583,-88.2131,18.5,1111122 
DISL,ioos:station:DISL:KATA:1,2012-11-02T08:00:00Z,30.2583,-88.2131,18.81,1111122 
DISL,ioos:station:DISL:KATA:1,2012-11-02T08:30:00Z,30.2583,-88.2131,18.87,1111122 
DISL,ioos:station:DISL:KATA:1,2012-11-02T09:00:00Z,30.2583,-88.2131,19.13,1111122 
DISL,ioos:station:DISL:KATA:1,2012-11-02T09:30:00Z,30.2583,-88.2131,19.26,1111122 
DISL,ioos:station:DISL:KATA:1,2012-11-02T10:00:00Z,30.2583,-88.2131,19.29,1111122 
DISL,ioos:station:DISL:KATA:1,2012-11-02T10:30:00Z,30.2583,-88.2131,19.29,1111122 
DISL,ioos:station:DISL:KATA:1,2012-11-02T11:00:00Z,30.2583,-88.2131,19.33,1111122 
DISL,ioos:station:DISL:KATA:1,2012-11-02T11:30:00Z,30.2583,-88.2131,19.36,1111122 
DISL,ioos:station:DISL:KATA:1,2012-11-02T12:00:00Z,30.2583,-88.2131,19.67,1111122 
DISL,ioos:station:DISL:KATA:1,2012-11-02T12:30:00Z,30.2583,-88.2131,20.07,1111122 
DISL,ioos:station:DISL:KATA:1,2012-11-02T13:00:00Z,30.2583,-88.2131,20.62,1111122 
DISL,ioos:station:DISL:KATA:1,2012-11-02T13:30:00Z,30.2583,-88.2131,20.81,1111122 
DISL,ioos:station:DISL:KATA:1,2012-11-02T14:00:00Z,30.2583,-88.2131,20.67,1111122 
DISL,ioos:station:DISL:KATA:1,2012-11-02T14:30:00Z,30.2583,-88.2131,20.53,1111122 
DISL,ioos:station:DISL:KATA:1,2012-11-02T15:00:00Z,30.2583,-88.2131,20.19,1111122 
DISL,ioos:station:DISL:KATA:1,2012-11-02T15:30:00Z,30.2583,-88.2131,19.92,1111122 
DISL,ioos:station:DISL:KATA:1,2012-11-02T16:00:00Z,30.2583,-88.2131,19.21,1111122 
DISL,ioos:station:DISL:KATA:1,2012-11-02T16:30:00Z,30.2583,-88.2131,18.53,1111122 
DISL,ioos:station:DISL:KATA:1,2012-11-02T17:00:00Z,30.2583,-88.2131,18.53,1111122 
DISL,ioos:station:DISL:KATA:1,2012-11-02T17:30:00Z,30.2583,-88.2131,18.47,1111122 
DISL,ioos:station:DISL:KATA:1,2012-11-02T18:00:00Z,30.2583,-88.2131,18.61,1111122 
DISL,ioos:station:DISL:KATA:1,2012-11-02T18:30:00Z,30.2583,-88.2131,18.84,1111122 
DISL,ioos:station:DISL:KATA:1,2012-11-02T19:00:00Z,30.2583,-88.2131,19.0,1111122 
DISL,ioos:station:DISL:KATA:1,2012-11-02T19:30:00Z,30.2583,-88.2131,19.17,1111122 
DISL,ioos:station:DISL:KATA:1,2012-11-02T20:00:00Z,30.2583,-88.2131,19.78,1111122 
DISL,ioos:station:DISL:KATA:1,2012-11-02T20:30:00Z,30.2583,-88.2131,20.12,1111122 
DISL,ioos:station:DISL:KATA:1,2012-11-02T21:00:00Z,30.2583,-88.2131,20.39,1111122 
DISL,ioos:station:DISL:KATA:1,2012-11-02T21:30:00Z,30.2583,-88.2131,20.6,1111122 
DISL,ioos:station:DISL:KATA:1,2012-11-02T22:00:00Z,30.2583,-88.2131,21.07,1111122 
DISL,ioos:station:DISL:KATA:1,2012-11-02T22:30:00Z,30.2583,-88.2131,20.9,1111122 
DISL,ioos:station:DISL:KATA:1,2012-11-02T23:00:00Z,30.2583,-88.2131,20.77,1111122 
DISL,ioos:station:DISL:KATA:1,2012-11-02T23:30:00Z,30.2583,-88.2131,20.7,1111122 
DISL,ioos:station:DISL:KATA:1,2012-11-03T00:00:00Z,30.2583,-88.2131,20.81,1111122 
DISL,ioos:station:DISL:KATA:1,2012-11-03T00:30:00Z,30.2583,-88.2131,20.95,1111122 
DISL,ioos:station:DISL:KATA:1,2012-11-03T01:00:00Z,30.2583,-88.2131,21.22,1111122 
DISL,ioos:station:DISL:KATA:1,2012-11-03T01:30:00Z,30.2583,-88.2131,21.01,1111122 
DISL,ioos:station:DISL:KATA:1,2012-11-03T02:00:00Z,30.2583,-88.2131,21.18,1111122 
DISL,ioos:station:DISL:KATA:1,2012-11-03T02:30:00Z,30.2583,-88.2131,21.22,1111122 
DISL,ioos:station:DISL:KATA:1,2012-11-03T03:00:00Z,30.2583,-88.2131,21.11,1111122 
DISL,ioos:station:DISL:KATA:1,2012-11-03T03:30:00Z,30.2583,-88.2131,21.05,1111122 
DISL,ioos:station:DISL:KATA:1,2012-11-03T04:00:00Z,30.2583,-88.2131,21.15,1111122 
DISL,ioos:station:DISL:KATA:1,2012-11-03T04:30:00Z,30.2583,-88.2131,21.01,1111122 
DISL,ioos:station:DISL:KATA:1,2012-11-03T05:00:00Z,30.2583,-88.2131,21.15,1111122 
DISL,ioos:station:DISL:KATA:1,2012-11-03T05:30:00Z,30.2583,-88.2131,20.88,1111122 
DISL,ioos:station:DISL:KATA:1,2012-11-03T06:00:00Z,30.2583,-88.2131,20.81,1111122 
DISL,ioos:station:DISL:KATA:1,2012-11-03T06:30:00Z,30.2583,-88.2131,20.61,1111122 
DISL,ioos:station:DISL:KATA:1,2012-11-03T07:00:00Z,30.2583,-88.2131,20.47,1111122 
DISL,ioos:station:DISL:KATA:1,2012-11-03T07:30:00Z,30.2583,-88.2131,20.24,1111122 
DISL,ioos:station:DISL:KATA:1,2012-11-03T08:00:00Z,30.2583,-88.2131,20.24,1111122 
DISL,ioos:station:DISL:KATA:1,2012-11-03T08:30:00Z,30.2583,-88.2131,19.97,1111122 
DISL,ioos:station:DISL:KATA:1,2012-11-03T09:00:00Z,30.2583,-88.2131,19.8,1111122 
DISL,ioos:station:DISL:KATA:1,2012-11-03T09:30:00Z,30.2583,-88.2131,19.74,1111122 
DISL,ioos:station:DISL:KATA:1,2012-11-03T10:00:00Z,30.2583,-88.2131,19.57,1111122 
DISL,ioos:station:DISL:KATA:1,2012-11-03T10:30:00Z,30.2583,-88.2131,19.4,1111122 
DISL,ioos:station:DISL:KATA:1,2012-11-03T11:00:00Z,30.2583,-88.2131,19.29,1111122 
DISL,ioos:station:DISL:KATA:1,2012-11-03T11:30:00Z,30.2583,-88.2131,19.23,1111122 
DISL,ioos:station:DISL:KATA:1,2012-11-03T12:00:00Z,30.2583,-88.2131,19.23,1111122 
DISL,ioos:station:DISL:KATA:1,2012-11-03T12:30:00Z,30.2583,-88.2131,19.16,1111122 
DISL,ioos:station:DISL:KATA:1,2012-11-03T13:00:00Z,30.2583,-88.2131,19.4,1111122 
DISL,ioos:station:DISL:KATA:1,2012-11-03T13:30:00Z,30.2583,-88.2131,19.49,1111122 
DISL,ioos:station:DISL:KATA:1,2012-11-03T14:00:00Z,30.2583,-88.2131,19.41,1111122 
DISL,ioos:station:DISL:KATA:1,2012-11-03T14:30:00Z,30.2583,-88.2131,19.34,1111122 
DISL,ioos:station:DISL:KATA:1,2012-11-03T15:00:00Z,30.2583,-88.2131,19.61,1111122 
DISL,ioos:station:DISL:KATA:1,2012-11-03T15:30:00Z,30.2583,-88.2131,19.88,1111122 
DISL,ioos:station:DISL:KATA:1,2012-11-03T16:00:00Z,30.2583,-88.2131,20.41,1111122 
DISL,ioos:station:DISL:KATA:1,2012-11-03T16:30:00Z,30.2583,-88.2131,20.81,1111122 
DISL,ioos:station:DISL:KATA:1,2012-11-03T17:00:00Z,30.2583,-88.2131,21.15,1111122 
DISL,ioos:station:DISL:KATA:1,2012-11-03T17:30:00Z,30.2583,-88.2131,21.15,1111122 
DISL,ioos:station:DISL:KATA:1,2012-11-03T18:00:00Z,30.2583,-88.2131,21.66,1111122 
DISL,ioos:station:DISL:KATA:1,2012-11-03T18:30:00Z,30.2583,-88.2131,21.56,1111122 
DISL,ioos:station:DISL:KATA:1,2012-11-03T19:00:00Z,30.2583,-88.2131,21.42,1111122 
DISL,ioos:station:DISL:KATA:1,2012-11-03T19:30:00Z,30.2583,-88.2131,21.6,1111122 
DISL,ioos:station:DISL:KATA:1,2012-11-03T20:00:00Z,30.2583,-88.2131,21.75,1111122 
DISL,ioos:station:DISL:KATA:1,2012-11-03T20:30:00Z,30.2583,-88.2131,21.75,1111122 
DISL,ioos:station:DISL:KATA:1,2012-11-03T21:00:00Z,30.2583,-88.2131,21.85,1111122 
DISL,ioos:station:DISL:KATA:1,2012-11-03T21:30:00Z,30.2583,-88.2131,21.85,1111122 
DISL,ioos:station:DISL:KATA:1,2012-11-03T22:00:00Z,30.2583,-88.2131,22.09,1111122 
DISL,ioos:station:DISL:KATA:1,2012-11-03T22:30:00Z,30.2583,-88.2131,21.89,1111122 
DISL,ioos:station:DISL:KATA:1,2012-11-03T23:00:00Z,30.2583,-88.2131,21.68,1111122 
DISL,ioos:station:DISL:KATA:1,2012-11-03T23:30:00Z,30.2583,-88.2131,21.58,1111122 
DISL,ioos:station:DISL:KATA:1,2012-11-04T00:00:00Z,30.2583,-88.2131,21.68,1111122 
DISL,ioos:station:DISL:KATA:1,2012-11-04T00:30:00Z,30.2583,-88.2131,21.72,1111122 
DISL,ioos:station:DISL:KATA:1,2012-11-04T01:00:00Z,30.2583,-88.2131,21.78,1111122 
DISL,ioos:station:DISL:KATA:1,2012-11-04T01:30:00Z,30.2583,-88.2131,21.85,1111122 
DISL,ioos:station:DISL:KATA:1,2012-11-04T02:00:00Z,30.2583,-88.2131,21.95,1111122 
DISL,ioos:station:DISL:KATA:1,2012-11-04T02:30:00Z,30.2583,-88.2131,21.78,1111122 
DISL,ioos:station:DISL:KATA:1,2012-11-04T03:00:00Z,30.2583,-88.2131,21.95,1111122 
DISL,ioos:station:DISL:KATA:1,2012-11-04T03:30:00Z,30.2583,-88.2131,21.78,1111122 
DISL,ioos:station:DISL:KATA:1,2012-11-04T04:00:00Z,30.2583,-88.2131,21.75,1111122 
DISL,ioos:station:DISL:KATA:1,2012-11-04T04:30:00Z,30.2583,-88.2131,21.72,1111122 
DISL,ioos:station:DISL:KATA:1,2012-11-04T05:00:00Z,30.2583,-88.2131,21.55,1111122 
DISL,ioos:station:DISL:KATA:1,2012-11-04T05:30:00Z,30.2583,-88.2131,21.21,1111122 
DISL,ioos:station:DISL:KATA:1,2012-11-04T06:00:00Z,30.2583,-88.2131,21.08,1111122 
DISL,ioos:station:DISL:KATA:1,2012-11-04T06:30:00Z,30.2583,-88.2131,20.98,1111122 
DISL,ioos:station:DISL:KATA:1,2012-11-04T07:00:00Z,30.2583,-88.2131,20.95,1111122 
DISL,ioos:station:DISL:KATA:1,2012-11-04T07:30:00Z,30.2583,-88.2131,20.84,1111122 
DISL,ioos:station:DISL:KATA:1,2012-11-04T08:00:00Z,30.2583,-88.2131,20.84,1111122 
DISL,ioos:station:DISL:KATA:1,2012-11-04T08:30:00Z,30.2583,-88.2131,20.47,1111122 
DISL,ioos:station:DISL:KATA:1,2012-11-04T09:00:00Z,30.2583,-88.2131,20.44,1111122 
DISL,ioos:station:DISL:KATA:1,2012-11-04T09:30:00Z,30.2583,-88.2131,20.44,1111122 
DISL,ioos:station:DISL:KATA:1,2012-11-04T10:00:00Z,30.2583,-88.2131,20.48,1111122 
DISL,ioos:station:DISL:KATA:1,2012-11-04T10:30:00Z,30.2583,-88.2131,20.37,1111122 
DISL,ioos:station:DISL:KATA:1,2012-11-04T11:00:00Z,30.2583,-88.2131,20.14,1111122 
DISL,ioos:station:DISL:KATA:1,2012-11-04T11:30:00Z,30.2583,-88.2131,20.11,1111122 
DISL,ioos:station:DISL:KATA:1,2012-11-04T12:00:00Z,30.2583,-88.2131,20.07,1111122 
DISL,ioos:station:DISL:KATA:1,2012-11-04T12:30:00Z,30.2583,-88.2131,19.94,1111122 
DISL,ioos:station:DISL:KATA:1,2012-11-04T13:00:00Z,30.2583,-88.2131,19.39,1111122 
DISL,ioos:station:DISL:KATA:1,2012-11-04T13:30:00Z,30.2583,-88.2131,19.12,1111122 
DISL,ioos:station:DISL:KATA:1,2012-11-04T14:00:00Z,30.2583,-88.2131,19.29,1111122 
DISL,ioos:station:DISL:KATA:1,2012-11-04T14:30:00Z,30.2583,-88.2131,19.14,1111122 
DISL,ioos:station:DISL:KATA:1,2012-11-04T15:00:00Z,30.2583,-88.2131,19.44,1111122 
DISL,ioos:station:DISL:KATA:1,2012-11-04T15:30:00Z,30.2583,-88.2131,19.78,1111122 
DISL,ioos:station:DISL:KATA:1,2012-11-04T16:00:00Z,30.2583,-88.2131,20.29,1111122 
DISL,ioos:station:DISL:KATA:1,2012-11-04T16:30:00Z,30.2583,-88.2131,20.59,1111122 
DISL,ioos:station:DISL:KATA:1,2012-11-04T17:00:00Z,30.2583,-88.2131,20.61,1111122 
DISL,ioos:station:DISL:KATA:1,2012-11-04T17:30:00Z,30.2583,-88.2131,20.92,1111122 
DISL,ioos:station:DISL:KATA:1,2012-11-04T18:00:00Z,30.2583,-88.2131,21.32,1111122 
DISL,ioos:station:DISL:KATA:1,2012-11-04T18:30:00Z,30.2583,-88.2131,21.69,1111122 
DISL,ioos:station:DISL:KATA:1,2012-11-04T19:00:00Z,30.2583,-88.2131,22.17,1111122 
DISL,ioos:station:DISL:KATA:1,2012-11-04T19:30:00Z,30.2583,-88.2131,22.0,1111122 
DISL,ioos:station:DISL:KATA:1,2012-11-04T20:00:00Z,30.2583,-88.2131,22.01,1111122 
DISL,ioos:station:DISL:KATA:1,2012-11-04T20:30:00Z,30.2583,-88.2131,21.44,1111122 
DISL,ioos:station:DISL:KATA:1,2012-11-04T21:00:00Z,30.2583,-88.2131,20.77,1111122 
DISL,ioos:station:DISL:KATA:1,2012-11-04T21:30:00Z,30.2583,-88.2131,20.53,1111122 
DISL,ioos:station:DISL:KATA:1,2012-11-04T22:00:00Z,30.2583,-88.2131,20.67,1111122 
DISL,ioos:station:DISL:KATA:1,2012-11-04T22:30:00Z,30.2583,-88.2131,20.71,1111122 
DISL,ioos:station:DISL:KATA:1,2012-11-04T23:00:00Z,30.2583,-88.2131,20.47,1111122 
DISL,ioos:station:DISL:KATA:1,2012-11-04T23:30:00Z,30.2583,-88.2131,20.51,1111122 
DISL,ioos:station:DISL:KATA:1,2012-11-05T00:00:00Z,30.2583,-88.2131,20.0,1111122 
DISL,ioos:station:DISL:KATA:1,2012-11-05T00:30:00Z,30.2583,-88.2131,19.35,1111122 
DISL,ioos:station:DISL:KATA:1,2012-11-05T01:00:00Z,30.2583,-88.2131,19.09,1111122 
DISL,ioos:station:DISL:KATA:1,2012-11-05T01:30:00Z,30.2583,-88.2131,19.19,1111122 
DISL,ioos:station:DISL:KATA:1,2012-11-05T02:00:00Z,30.2583,-88.2131,19.29,1111122 
DISL,ioos:station:DISL:KATA:1,2012-11-05T02:30:00Z,30.2583,-88.2131,19.43,1111122 
DISL,ioos:station:DISL:KATA:1,2012-11-05T03:00:00Z,30.2583,-88.2131,19.16,1111122 
DISL,ioos:station:DISL:KATA:1,2012-11-05T03:30:00Z,30.2583,-88.2131,19.02,1111122 
DISL,ioos:station:DISL:KATA:1,2012-11-05T04:00:00Z,30.2583,-88.2131,18.68,1111122 
DISL,ioos:station:DISL:KATA:1,2012-11-05T04:30:00Z,30.2583,-88.2131,18.34,1111122 
DISL,ioos:station:DISL:KATA:1,2012-11-05T05:00:00Z,30.2583,-88.2131,18.45,1111122 
DISL,ioos:station:DISL:KATA:1,2012-11-05T05:30:00Z,30.2583,-88.2131,18.34,1111122 
DISL,ioos:station:DISL:KATA:1,2012-11-05T06:00:00Z,30.2583,-88.2131,17.8,1111122 
DISL,ioos:station:DISL:KATA:1,2012-11-05T06:30:00Z,30.2583,-88.2131,17.53,1111122 
DISL,ioos:station:DISL:KATA:1,2012-11-05T07:00:00Z,30.2583,-88.2131,17.09,1111122 
DISL,ioos:station:DISL:KATA:1,2012-11-05T07:30:00Z,30.2583,-88.2131,16.86,1111122 
DISL,ioos:station:DISL:KATA:1,2012-11-05T08:00:00Z,30.2583,-88.2131,16.96,1111122 
DISL,ioos:station:DISL:KATA:1,2012-11-05T08:30:00Z,30.2583,-88.2131,16.49,1111122 
DISL,ioos:station:DISL:KATA:1,2012-11-05T09:00:00Z,30.2583,-88.2131,16.33,1111122 
DISL,ioos:station:DISL:KATA:1,2012-11-05T09:30:00Z,30.2583,-88.2131,16.57,1111122 
DISL,ioos:station:DISL:KATA:1,2012-11-05T10:00:00Z,30.2583,-88.2131,16.57,1111122 
DISL,ioos:station:DISL:KATA:1,2012-11-05T10:30:00Z,30.2583,-88.2131,16.36,1111122 
DISL,ioos:station:DISL:KATA:1,2012-11-05T11:00:00Z,30.2583,-88.2131,16.16,1111122 
DISL,ioos:station:DISL:KATA:1,2012-11-05T11:30:00Z,30.2583,-88.2131,16.02,1111122 
DISL,ioos:station:DISL:KATA:1,2012-11-05T12:00:00Z,30.2583,-88.2131,15.65,1111122 
DISL,ioos:station:DISL:KATA:1,2012-11-05T12:30:00Z,30.2583,-88.2131,16.02,1111122 
DISL,ioos:station:DISL:KATA:1,2012-11-05T13:00:00Z,30.2583,-88.2131,16.33,1111122 
DISL,ioos:station:DISL:KATA:1,2012-11-05T13:30:00Z,30.2583,-88.2131,16.63,1111122 
DISL,ioos:station:DISL:KATA:1,2012-11-05T14:00:00Z,30.2583,-88.2131,16.59,1111122 
DISL,ioos:station:DISL:KATA:1,2012-11-05T14:30:00Z,30.2583,-88.2131,16.65,1111122 
DISL,ioos:station:DISL:KATA:1,2012-11-05T15:00:00Z,30.2583,-88.2131,16.85,1111122 
DISL,ioos:station:DISL:KATA:1,2012-11-05T15:30:00Z,30.2583,-88.2131,16.82,1111122 
DISL,ioos:station:DISL:KATA:1,2012-11-05T16:00:00Z,30.2583,-88.2131,17.56,1111122 
DISL,ioos:station:DISL:KATA:1,2012-11-05T16:30:00Z,30.2583,-88.2131,17.7,1111122 
DISL,ioos:station:DISL:KATA:1,2012-11-05T17:00:00Z,30.2583,-88.2131,18.45,1111122 
DISL,ioos:station:DISL:KATA:1,2012-11-05T17:30:00Z,30.2583,-88.2131,18.61,1111122 
DISL,ioos:station:DISL:KATA:1,2012-11-05T18:00:00Z,30.2583,-88.2131,18.29,1111122 
DISL,ioos:station:DISL:KATA:1,2012-11-05T18:30:00Z,30.2583,-88.2131,18.8,1111122 
DISL,ioos:station:DISL:KATA:1,2012-11-05T19:00:00Z,30.2583,-88.2131,18.8,1111122 
DISL,ioos:station:DISL:KATA:1,2012-11-05T19:30:00Z,30.2583,-88.2131,18.8,1111122 
DISL,ioos:station:DISL:KATA:1,2012-11-05T20:00:00Z,30.2583,-88.2131,19.1,1111122 
DISL,ioos:station:DISL:KATA:1,2012-11-05T20:30:00Z,30.2583,-88.2131,19.0,1111122 
DISL,ioos:station:DISL:KATA:1,2012-11-05T21:00:00Z,30.2583,-88.2131,19.38,1111122 
DISL,ioos:station:DISL:KATA:1,2012-11-05T21:30:00Z,30.2583,-88.2131,18.9,1111122 
DISL,ioos:station:DISL:KATA:1,2012-11-05T22:00:00Z,30.2583,-88.2131,19.08,1111122 
DISL,ioos:station:DISL:KATA:1,2012-11-05T22:30:00Z,30.2583,-88.2131,19.02,1111122 
DISL,ioos:station:DISL:KATA:1,2012-11-05T23:00:00Z,30.2583,-88.2131,18.99,1111122 
DISL,ioos:station:DISL:KATA:1,2012-11-05T23:30:00Z,30.2583,-88.2131,18.99,1111122 
DISL,ioos:station:DISL:KATA:1,2012-11-06T00:00:00Z,30.2583,-88.2131,17.9,1111122 
DISL,ioos:station:DISL:KATA:1,2012-11-06T00:30:00Z,30.2583,-88.2131,18.18,1111122 
DISL,ioos:station:DISL:KATA:1,2012-11-06T01:00:00Z,30.2583,-88.2131,18.68,1111122 
DISL,ioos:station:DISL:KATA:1,2012-11-06T01:30:00Z,30.2583,-88.2131,19.46,1111122 
DISL,ioos:station:DISL:KATA:1,2012-11-06T02:00:00Z,30.2583,-88.2131,19.77,1111122 
DISL,ioos:station:DISL:KATA:1,2012-11-06T02:30:00Z,30.2583,-88.2131,20.01,1111122 
DISL,ioos:station:DISL:KATA:1,2012-11-06T03:00:00Z,30.2583,-88.2131,20.07,1111122 
DISL,ioos:station:DISL:KATA:1,2012-11-06T03:30:00Z,30.2583,-88.2131,20.28,1111122 
DISL,ioos:station:DISL:KATA:1,2012-11-06T04:00:00Z,30.2583,-88.2131,20.31,1111122 
DISL,ioos:station:DISL:KATA:1,2012-11-06T04:30:00Z,30.2583,-88.2131,20.31,1111122 
DISL,ioos:station:DISL:KATA:1,2012-11-06T05:00:00Z,30.2583,-88.2131,20.61,1111122 
DISL,ioos:station:DISL:KATA:1,2012-11-06T05:30:00Z,30.2583,-88.2131,20.78,1111122 
DISL,ioos:station:DISL:KATA:1,2012-11-06T06:00:00Z,30.2583,-88.2131,17.69,1111122 
DISL,ioos:station:DISL:KATA:1,2012-11-06T06:30:00Z,30.2583,-88.2131,17.02,1111122 
DISL,ioos:station:DISL:KATA:1,2012-11-06T07:00:00Z,30.2583,-88.2131,15.63,1111122 
DISL,ioos:station:DISL:KATA:1,2012-11-06T07:30:00Z,30.2583,-88.2131,14.52,1111122 
DISL,ioos:station:DISL:KATA:1,2012-11-06T08:00:00Z,30.2583,-88.2131,13.99,1111122 
DISL,ioos:station:DISL:KATA:1,2012-11-06T08:30:00Z,30.2583,-88.2131,13.42,1111122 
DISL,ioos:station:DISL:KATA:1,2012-11-06T09:00:00Z,30.2583,-88.2131,13.42,1111122 
DISL,ioos:station:DISL:KATA:1,2012-11-06T09:30:00Z,30.2583,-88.2131,13.12,1111122 
DISL,ioos:station:DISL:KATA:1,2012-11-06T10:00:00Z,30.2583,-88.2131,13.12,1111122 
DISL,ioos:station:DISL:KATA:1,2012-11-06T10:30:00Z,30.2583,-88.2131,11.6,1111122 
DISL,ioos:station:DISL:KATA:1,2012-11-06T11:00:00Z,30.2583,-88.2131,11.56,1111122 
DISL,ioos:station:DISL:KATA:1,2012-11-06T11:30:00Z,30.2583,-88.2131,11.49,1111122 
DISL,ioos:station:DISL:KATA:1,2012-11-06T12:00:00Z,30.2583,-88.2131,12.0,1111122 
DISL,ioos:station:DISL:KATA:1,2012-11-06T12:30:00Z,30.2583,-88.2131,11.83,1111122 
DISL,ioos:station:DISL:KATA:1,2012-11-06T13:00:00Z,30.2583,-88.2131,11.39,1111122 
DISL,ioos:station:DISL:KATA:1,2012-11-06T13:30:00Z,30.2583,-88.2131,11.46,1111122 
DISL,ioos:station:DISL:KATA:1,2012-11-06T14:00:00Z,30.2583,-88.2131,11.19,1111122 
DISL,ioos:station:DISL:KATA:1,2012-11-06T14:30:00Z,30.2583,-88.2131,11.73,1111122 
DISL,ioos:station:DISL:KATA:1,2012-11-06T15:00:00Z,30.2583,-88.2131,11.93,1111122 
DISL,ioos:station:DISL:KATA:1,2012-11-06T15:30:00Z,30.2583,-88.2131,12.16,1111122 
DISL,ioos:station:DISL:KATA:1,2012-11-06T16:00:00Z,30.2583,-88.2131,12.57,1111122 
DISL,ioos:station:DISL:KATA:1,2012-11-06T16:30:00Z,30.2583,-88.2131,12.97,1111122 
DISL,ioos:station:DISL:KATA:1,2012-11-06T17:00:00Z,30.2583,-88.2131,13.61,1111122 
DISL,ioos:station:DISL:KATA:1,2012-11-06T17:30:00Z,30.2583,-88.2131,14.25,1111122 
DISL,ioos:station:DISL:KATA:1,2012-11-06T18:00:00Z,30.2583,-88.2131,14.78,1111122 
DISL,ioos:station:DISL:KATA:1,2012-11-06T18:30:00Z,30.2583,-88.2131,15.12,1111122 
DISL,ioos:station:DISL:KATA:1,2012-11-06T19:00:00Z,30.2583,-88.2131,15.33,1111122 
DISL,ioos:station:DISL:KATA:1,2012-11-06T19:30:00Z,30.2583,-88.2131,15.87,1111122 
DISL,ioos:station:DISL:KATA:1,2012-11-06T20:00:00Z,30.2583,-88.2131,16.38,1111122 
DISL,ioos:station:DISL:KATA:1,2012-11-06T20:30:00Z,30.2583,-88.2131,16.41,1111122 
DISL,ioos:station:DISL:KATA:1,2012-11-06T21:00:00Z,30.2583,-88.2131,16.34,1111122 
DISL,ioos:station:DISL:KATA:1,2012-11-06T21:30:00Z,30.2583,-88.2131,16.14,1111122 
DISL,ioos:station:DISL:KATA:1,2012-11-06T22:00:00Z,30.2583,-88.2131,16.11,1111122 
DISL,ioos:station:DISL:KATA:1,2012-11-06T22:30:00Z,30.2583,-88.2131,15.54,1111122 
DISL,ioos:station:DISL:KATA:1,2012-11-06T23:00:00Z,30.2583,-88.2131,15.11,1111122 
DISL,ioos:station:DISL:KATA:1,2012-11-06T23:30:00Z,30.2583,-88.2131,14.9,1111122 